Regional Weather Roundup
Issued by NWS

Home | Current Version | Previous Version | Graphics & Text | Print | Product List | Glossary Off
Versions: 1 2 3 4 5 6 7 8 9 10 11 12 13 14 15 16 17 18 19 20 21 22 23 24 25 26 27 28 29 30 31 32 33 34 35 36 37 38 39 40 41 42 43 44 45 46 47 48 49 50

000
ASUS43 KTOP 200408
RWRKS

WEATHER ROUNDUP FOR KANSAS
NATIONAL WEATHER SERVICE GOODLAND KS
1100 PM CDT TUE AUG 19 2014

NOTE:  "FAIR" INDICATES FEW OR NO CLOUDS BELOW 12,000 FEET WITH NO
SIGNIFICANT WEATHER AND/OR OBSTRUCTIONS TO VISIBILITY.

KSZ001>006-013>018-027>032-041>047-200500-
NORTHWEST KANSAS

CITY           SKY/WX    TMP DP  RH WIND       PRES   REMARKS
GOODLAND       CLOUDY    80  51  36 SW5       29.86R
HAYS           CLEAR     79  61  53 S12       29.80S
HILL CITY      PTCLDY    81  62  52 S12       29.78R
RUSSELL        CLEAR     78  62  57 S10       29.79R
$$

KSZ061>065-074>080-084>089-200500-
SOUTHWEST KANSAS

CITY           SKY/WX    TMP DP  RH WIND       PRES   REMARKS
DODGE CITY     CLEAR     76  61  59 S13       29.85R
ELKHART          N/A     76  57  51 SE16        N/A
GARDEN CITY    MOCLDY    75  61  61 S10       29.84R
GREAT BEND     CLEAR     77  63  61 S10       29.81S
LIBERAL        CLEAR     79  57  47 S13       29.88R
PRATT          CLEAR     81  59  47 S14G21    29.85R
$$

KSZ066>073-081>083-090>101-200500-
SOUTHEAST KANSAS

CITY           SKY/WX    TMP DP  RH WIND       PRES   REMARKS
CHANUTE        CLEAR     80  71  74 S9        29.85R HAZE
COFFEYVILLE    CLEAR     81  72  74 S7        29.85R
HUTCHINSON     CLEAR     79  66  64 SE8       29.82R
MEDICINE LODGE   N/A     82  62  50 S8        29.83R
NEWTON         CLEAR     79  64  61 S12       29.87S
PARSONS        CLEAR     82  71  69 S7        29.87R
WICHITA INTL   CLEAR     82  67  60 S13       29.83R
WICHITA JABRA  CLEAR     80  67  64 S10       29.84R
WICHITA MCCONL CLEAR     82  68  61 S13       29.85R
WINFIELD       CLEAR     82  68  62 S13       29.86R
$$

KSZ007>012-019>026-033>040-048>060-102>105-200500-
NORTHEAST KANSAS

CITY           SKY/WX    TMP DP  RH WIND       PRES   REMARKS
CONCORDIA      PTCLDY    76  69  79 S9        29.79R
EMPORIA        CLEAR     76  66  71 S8        29.83R
LAWRENCE       CLEAR     78  70  76 SE3       29.81R
MANHATTAN      CLEAR     81  68  64 SW8       29.79R
MARYSVILLE     CLEAR     75  68  78 SE7       29.79R
OLATHE IND     CLEAR     77  69  76 S8        29.83S
OLATHE EXE     CLEAR     79  69  71 S5        29.82S
SALINA         CLEAR     81  67  62 S12       29.79R
TOPEKA BILLARD CLEAR     81  72  74 S3        29.80R
TOPEKA FORBES  CLEAR     79  66  64 S7        29.81R
$$



USA.gov is the U.S. government's official web portal to all federal, state and local government web resources and services.